Vorticity
3 2 2 3 6 8 6 8 6 5 5 6 7 5 4 5 4 3 2 5 4 3 4 4 4 6 6 6 5 5 6 6 7 7 6 5 5 5 5 5 5 5 4 5 4 4 4 5 5
2 2 2 2 3 4 -0 5 7 8 7 7 7 6 6 4 4 3 5 4 5 5 4 4 6 6 7 5 5 5 6 6 5 5 6 5 5 5 5 5 5 5 5 4 4 5 5 6 6
0 3 2 2 2 9 10 4 3 4 6 6 6 5 4 3 3 3 4 5 5 5 5 7 7 7 6 5 5 5 7 6 5 5 4 4 5 5 6 6 5 5 4 4 5 6 6 6 6
3 3 5 2 -0 12 4 6 7 6 5 3 4 3 3 3 4 2 4 4 5 6 7 8 7 6 6 5 6 5 5 4 5 5 6 6 6 5 5 5 4 4 4 5 6 7 5 6 6
2 3 3 2 7 4 -3 1 4 6 6 6 5 4 3 3 2 2 5 5 7 6 8 7 7 6 5 4 6 6 7 6 6 7 8 7 7 7 6 6 7 7 7 7 6 6 5 5 6
4 2 5 7 6 4 2 5 5 6 6 7 7 5 4 3 2 6 5 6 6 6 8 7 6 6 5 4 6 5 4 7 10 6 5 3 1 6 6 6 6 6 7 6 7 6 5 7 6
3 4 6 2 7 31 2 3 7 7 7 8 8 7 6 7 7 6 6 5 6 8 8 6 5 5 5 5 5 6 5 2 5 7 3 4 5 4 5 7 8 7 7 6 7 10 8 8 8
5 4 4 6 -3 14 -4 3 5 8 8 7 6 7 7 5 6 7 5 6 7 9 9 5 6 4 5 6 5 5 6 5 6 6 5 5 5 5 6 7 7 6 4 5 7 9 6 6 5
3 4 4 5 5 2 3 4 6 6 6 5 5 5 5 5 6 6 7 9 8 10 8 5 4 4 4 3 4 3 5 6 5 5 6 6 5 5 5 6 6 6 5 5 6 7 6 4 3
4 4 5 7 -3 16 5 5 5 7 7 6 5 4 4 6 7 8 9 9 9 9 5 7 3 5 4 4 4 4 4 4 4 5 6 6 5 5 5 5 5 6 7 8 7 7 6 6 5
3 4 6 1 -2 -11 -9 4 8 8 6 6 7 4 7 7 7 7 8 8 7 9 7 6 4 4 5 3 4 4 3 4 3 5 6 6 6 5 5 5 5 6 7 6 7 8 8 8 7
4 2 -0 2 -0 7 0 4 5 8 8 8 6 8 6 6 6 7 8 9 7 9 8 6 3 5 4 5 4 4 4 4 5 5 6 6 6 6 5 5 5 6 6 7 6 7 6 7 7
6 5 2 4 3 -0 2 4 7 8 9 7 8 8 6 7 7 7 7 8 8 7 6 6 6 5 5 5 5 5 5 6 6 6 7 7 6 6 6 6 7 7 7 7 7 6 5 5 5
4 5 1 2 4 -2 3 5 3 4 7 6 6 8 7 7 6 5 7 7 7 7 7 6 5 5 5 6 6 7 8 7 7 7 7 7 6 6 6 7 7 7 7 7 6 6 6 7 6
3 5 3 5 3 4 2 3 3 3 4 3 6 7 7 6 4 6 6 6 7 8 7 8 7 7 8 7 8 8 8 8 8 8 7 7 7 7 8 7 7 6 6 6 6 6 6 6 7
5 4 4 5 1 2 5 -0 5 4 8 5 7 6 7 6 6 7 6 7 8 6 6 6 7 7 7 8 8 8 7 8 7 8 8 9 9 8 8 7 7 7 6 6 6 6 6 6 5
5 4 6 3 2 1 7 -5 -5 3 -1 5 6 11 5 8 8 8 6 7 7 7 7 8 9 8 7 7 7 7 8 8 8 9 9 9 8 8 7 6 6 6 6 6 5 6 5 4 5
9 3 5 5 4 2 3 -3 55 23 -1 -1 -1 4 9 8 7 6 6 6 5 6 6 7 6 6 7 7 8 8 9 9 9 8 7 7 7 6 5 5 4 4 4 4 5 4 5 5 5
9 9 3 -3 5 6 10 -2 30 -2 8 -8 9 6 6 8 7 7 7 7 7 7 6 8 7 9 9 8 9 10 8 8 8 8 8 6 5 4 5 4 5 5 5 5 5 5 5 6 7
8 2 1 6 32 16 12 -3 11 16 21 2 -8 2 4 5 6 7 9 7 7 7 7 9 11 8 10 9 9 8 9 6 7 6 6 6 5 4 4 3 3 4 4 4 5 6 6 5 6
7 6 8 2 -10 3 9 4 6 -2 24 30 14 5 6 7 7 7 7 7 7 8 10 8 8 8 9 8 9 7 7 7 7 8 6 4 3 3 3 4 4 5 7 6 5 6 6 5 5
14 11 7 9 5 4 5 4 13 19 13 11 11 9 11 9 8 8 9 10 10 10 11 9 8 9 7 6 6 7 8 7 5 4 4 4 3 3 5 5 6 5 5 6 7 8 10 11 9
10 8 11 9 4 3 10 9 8 10 8 13 8 7 8 8 9 9 10 10 10 9 7 6 6 6 8 8 7 5 5 5 4 5 5 5 5 5 5 4 5 8 10 12 12 11 11 11 12
12 10 8 7 11 9 1 7 4 8 11 7 6 7 8 9 9 10 9 8 7 9 8 9 8 7 6 6 6 4 4 5 4 4 4 4 5 8 11 12 13 11 10 9 9 8 8 7 9
11 8 9 7 4 10 15 14 6 15 9 9 8 9 10 8 7 8 7 7 8 8 8 7 7 6 5 5 4 5 5 5 7 10 13 15 14 13 11 10 9 8 7 6 8 11 13 11 8
8 8 9 4 12 0 -2 0 3 3 10 7 9 8 9 8 8 9 10 9 8 7 6 5 6 7 7 8 10 13 13 13 11 10 9 7 6 5 4 4 5 8 12 15 14 7 4 5 7
6 4 7 16 7 6 7 6 10 13 9 8 8 8 8 9 9 7 5 4 5 6 8 10 12 14 13 12 10 9 7 6 7 6 4 4 4 6 9 12 15 15 9 3 3 5 4 3 4
6 8 12 8 8 7 21 10 1 5 8 7 7 8 7 4 4 5 6 9 12 13 11 11 10 8 7 5 5 5 5 4 4 5 6 9 15 19 16 11 6 5 4 5 6 6 8 6 5
10 12 11 10 10 9 9 0 4 6 6 8 5 4 4 6 10 11 11 11 11 10 8 7 6 5 4 5 5 6 7 8 10 14 16 14 9 4 5 5 5 7 7 7 11 9 8 9 9
11 11 10 9 6 10 10 7 7 9 6 3 4 7 10 11 10 13 15 10 1 3 4 4 6 5 5 5 4 7 10 11 10 7 5 7 10 11 11 11 12 12 12 7 7 9 9 7 7
Height
5894 5895 5896 5898 5902 5899 5898 5899 5899 5899 5899 5900 5899 5899 5900 5900 5899 5901 5898 5897 5897 5896 5895 5895 5894 5893 5892 5891 5890 5889 5888 5887 5886 5885 5884 5883 5883 5882 5881 5881 5880 5879 5878 5878 5878 5877 5876 5875 5874
5892 5893 5895 5896 5898 5896 5898 5898 5899 5899 5898 5898 5898 5898 5899 5899 5898 5897 5896 5895 5895 5895 5893 5893 5892 5891 5889 5889 5888 5887 5887 5885 5884 5884 5883 5882 5881 5880 5880 5879 5878 5878 5877 5876 5876 5875 5874 5873 5872
5890 5892 5894 5894 5895 5894 5896 5897 5897 5898 5897 5897 5897 5897 5897 5897 5897 5896 5894 5893 5892 5893 5891 5890 5889 5888 5887 5887 5886 5886 5885 5884 5883 5882 5881 5880 5879 5879 5878 5878 5877 5876 5875 5874 5873 5872 5871 5871 5870
5888 5890 5892 5892 5893 5891 5890 5895 5895 5895 5896 5896 5895 5895 5895 5895 5895 5894 5892 5891 5890 5890 5889 5887 5886 5886 5885 5884 5884 5883 5882 5882 5881 5880 5879 5878 5877 5877 5876 5875 5875 5874 5873 5872 5871 5871 5869 5869 5868
5885 5886 5889 5891 5891 5890 5888 5893 5892 5893 5893 5893 5893 5894 5892 5891 5892 5891 5889 5889 5888 5888 5886 5885 5885 5884 5883 5882 5881 5881 5880 5879 5878 5877 5876 5876 5875 5875 5873 5872 5872 5871 5870 5869 5869 5868 5867 5866 5866
5882 5884 5886 5888 5888 5886 5887 5889 5889 5889 5890 5890 5890 5891 5890 5889 5889 5887 5886 5885 5884 5885 5883 5882 5882 5881 5880 5879 5879 5878 5877 5876 5876 5875 5874 5873 5872 5872 5870 5870 5869 5867 5867 5866 5865 5864 5864 5863 5863
5879 5879 5883 5884 5885 5884 5883 5885 5886 5886 5886 5887 5886 5885 5888 5886 5884 5883 5881 5881 5881 5880 5880 5879 5879 5878 5877 5876 5875 5874 5874 5873 5873 5872 5871 5870 5869 5868 5867 5867 5866 5865 5864 5863 5862 5861 5860 5860 5860
5874 5875 5880 5881 5880 5878 5881 5882 5883 5883 5884 5883 5882 5879 5885 5881 5881 5880 5877 5877 5877 5875 5877 5875 5876 5874 5873 5872 5872 5871 5870 5870 5869 5868 5867 5867 5866 5865 5864 5863 5862 5861 5860 5859 5858 5858 5857 5858 5857
5868 5871 5875 5878 5881 5878 5880 5880 5880 5880 5880 5880 5879 5878 5878 5878 5877 5875 5874 5872 5872 5870 5874 5872 5872 5870 5869 5869 5868 5867 5867 5866 5865 5864 5864 5863 5862 5861 5860 5858 5857 5857 5855 5854 5853 5853 5853 5854 5853
5862 5866 5871 5873 5872 5871 5875 5875 5877 5876 5876 5875 5875 5875 5873 5873 5873 5871 5869 5867 5866 5866 5867 5867 5868 5867 5866 5865 5864 5863 5862 5861 5860 5860 5859 5858 5857 5856 5855 5854 5852 5851 5850 5849 5848 5848 5847 5848 5848
5857 5861 5868 5865 5869 5869 5872 5870 5874 5871 5872 5871 5871 5873 5868 5869 5869 5867 5865 5865 5863 5863 5861 5862 5862 5861 5861 5859 5859 5858 5857 5857 5856 5855 5853 5853 5852 5851 5850 5848 5847 5846 5845 5843 5843 5842 5841 5841 5841
5853 5856 5860 5860 5865 5866 5867 5866 5868 5868 5865 5868 5866 5865 5867 5865 5864 5864 5862 5860 5858 5860 5857 5856 5858 5857 5856 5853 5853 5851 5851 5851 5850 5849 5847 5846 5845 5844 5843 5842 5840 5839 5838 5837 5836 5836 5835 5835 5835
5847 5852 5852 5853 5860 5860 5861 5862 5862 5863 5861 5862 5863 5860 5861 5860 5859 5858 5858 5856 5855 5856 5853 5853 5850 5850 5850 5849 5847 5846 5845 5843 5842 5841 5840 5839 5838 5836 5835 5834 5833 5832 5830 5830 5829 5829 5829 5828 5828
5839 5844 5845 5850 5854 5854 5856 5856 5857 5858 5857 5857 5857 5857 5856 5855 5853 5853 5852 5851 5849 5851 5849 5847 5846 5845 5844 5842 5841 5839 5838 5837 5836 5834 5832 5831 5829 5828 5827 5825 5824 5823 5822 5821 5821 5821 5820 5820 5820
5832 5840 5842 5847 5848 5848 5850 5851 5855 5849 5853 5852 5851 5852 5851 5850 5849 5847 5847 5846 5845 5847 5844 5843 5840 5839 5838 5836 5834 5833 5831 5830 5828 5827 5825 5823 5822 5820 5819 5817 5816 5814 5813 5813 5813 5812 5812 5812 5811
5828 5833 5836 5839 5842 5844 5846 5847 5846 5847 5848 5847 5847 5846 5846 5845 5844 5843 5842 5841 5840 5841 5838 5836 5834 5832 5831 5829 5828 5826 5824 5822 5820 5819 5817 5815 5813 5812 5810 5808 5807 5806 5805 5804 5804 5803 5802 5802 5801
5821 5826 5831 5833 5837 5839 5841 5840 5840 5840 5841 5840 5841 5839 5841 5839 5838 5837 5837 5835 5833 5833 5832 5829 5828 5826 5824 5822 5820 5818 5816 5814 5812 5810 5809 5807 5805 5804 5801 5800 5798 5797 5796 5795 5794 5793 5792 5791 5790
5816 5819 5824 5827 5830 5831 5834 5836 5826 5832 5834 5834 5835 5835 5832 5834 5833 5830 5830 5828 5826 5825 5825 5823 5821 5819 5817 5814 5813 5810 5808 5806 5804 5802 5800 5798 5796 5794 5792 5791 5789 5787 5785 5784 5782 5781 5780 5778 5777
5812 5815 5818 5819 5822 5827 5828 5829 5827 5827 5827 5831 5829 5828 5827 5826 5826 5825 5824 5821 5820 5818 5818 5817 5813 5812 5809 5807 5804 5802 5799 5798 5795 5793 5791 5789 5787 5785 5782 5780 5777 5775 5774 5771 5769 5768 5766 5764 5762
5806 5808 5813 5812 5815 5820 5821 5823 5823 5821 5821 5822 5823 5823 5822 5819 5818 5819 5819 5814 5813 5811 5809 5809 5806 5803 5801 5798 5796 5793 5791 5788 5787 5784 5782 5779 5777 5774 5771 5768 5765 5762 5760 5758 5755 5753 5752 5750 5747
5798 5800 5807 5810 5811 5816 5815 5817 5818 5817 5817 5816 5817 5818 5817 5815 5811 5811 5812 5809 5806 5804 5801 5799 5798 5794 5792 5789 5787 5784 5782 5779 5776 5775 5772 5768 5765 5761 5759 5755 5752 5749 5746 5743 5740 5737 5735 5734 5732
5794 5799 5802 5803 5809 5809 5810 5812 5812 5812 5813 5810 5813 5812 5811 5809 5806 5804 5804 5802 5799 5797 5795 5792 5788 5787 5783 5781 5778 5775 5772 5769 5765 5763 5761 5757 5753 5750 5746 5742 5738 5734 5730 5727 5724 5720 5717 5714 5713
5788 5793 5799 5800 5803 5804 5805 5806 5809 5805 5805 5807 5807 5806 5804 5803 5800 5797 5796 5794 5792 5789 5787 5783 5780 5777 5776 5772 5769 5766 5763 5759 5754 5750 5747 5743 5739 5734 5730 5725 5721 5717 5713 5710 5706 5703 5699 5696 5694
5786 5790 5793 5796 5798 5799 5803 5800 5800 5802 5801 5800 5800 5799 5798 5796 5794 5792 5789 5787 5784 5782 5779 5776 5772 5769 5766 5763 5760 5757 5752 5748 5743 5737 5733 5729 5724 5719 5714 5708 5704 5700 5696 5692 5689 5685 5682 5679 5676
5781 5785 5789 5792 5794 5795 5795 5796 5793 5797 5795 5795 5794 5793 5792 5790 5787 5785 5782 5780 5777 5774 5771 5767 5764 5760 5756 5753 5749 5744 5740 5736 5730 5724 5719 5713 5707 5702 5697 5692 5687 5683 5678 5674 5670 5667 5663 5660 5657
5778 5781 5785 5786 5790 5789 5789 5790 5793 5793 5792 5790 5789 5787 5785 5783 5781 5779 5775 5772 5769 5766 5762 5759 5755 5751 5746 5741 5736 5732 5727 5722 5716 5710 5704 5698 5692 5687 5681 5675 5670 5665 5660 5656 5652 5648 5645 5641 5637
5775 5778 5781 5782 5786 5786 5787 5786 5787 5787 5786 5784 5782 5780 5778 5776 5773 5770 5767 5764 5760 5757 5753 5749 5744 5739 5734 5729 5723 5717 5711 5707 5702 5696 5689 5683 5676 5669 5663 5657 5651 5646 5642 5637 5633 5629 5625 5621 5617
5771 5775 5777 5778 5780 5781 5783 5780 5777 5782 5781 5778 5776 5773 5771 5768 5764 5761 5757 5753 5750 5746 5741 5736 5731 5727 5721 5715 5709 5703 5697 5691 5685 5679 5673 5666 5658 5651 5645 5639 5634 5629 5624 5618 5613 5609 5604 5599 5595
5768 5770 5772 5774 5777 5776 5779 5776 5773 5773 5773 5771 5769 5766 5763 5760 5756 5752 5748 5743 5739 5736 5731 5726 5721 5715 5710 5704 5696 5689 5682 5675 5668 5660 5652 5646 5640 5633 5627 5621 5616 5610 5604 5598 5592 5587 5582 5576 5571
5763 5766 5769 5770 5771 5773 5772 5772 5769 5768 5766 5765 5762 5759 5755 5751 5747 5743 5740 5736 5732 5727 5721 5716 5710 5704 5697 5691 5682 5674 5666 5658 5651 5643 5636 5628 5622 5614 5607 5601 5595 5589 5583 5577 5570 5564 5558 5552 5546